Location: Derby
(52.9213°N, 1.4761°W)
Time: 14:27:29
(UTC+01:00)

Vanguard 2 Rocket - Visible Passes

Search period start: 18 May 2025 00:00
Search period end: 28 May 2025 00:00
Orbit: 554 x 3293 km, 32.9° (Epoch: 18 May)

Date Brightness Start Highest point End Pass type
(mag) Time Alt. Az. Time Alt. Az. Time Alt. Az.
18 May 9.1 01:48:35 10° SW 01:58:51 24° S 02:05:55 10° SE visible
18 May 9.0 04:04:23 10° WSW 04:10:56 18° SSW 04:15:46 10° SSE visible
18 May 10.0 22:32:27 10° S 22:41:03 16° SSE 22:48:12 10° ESE visible
19 May 9.3 00:42:58 10° SW 00:54:29 25° S 01:02:39 10° ESE visible
19 May 9.0 02:58:01 10° WSW 03:07:14 23° SSW 03:13:34 10° SE visible
19 May 9.6 23:37:46 10° SSW 23:49:53 24° SSE 23:58:53 10° ESE visible
20 May 9.1 01:51:48 10° SW 02:03:09 27° S 02:10:52 10° SE visible
20 May 9.1 04:08:32 10° WSW 04:15:09 17° SSW 04:20:06 10° S visible
20 May 9.9 22:33:18 10° SSW 22:45:05 21° SSE 22:54:27 10° ESE visible
21 May 9.3 00:45:47 10° SW 00:58:45 29° S 01:07:42 10° ESE visible
21 May 9.1 03:01:45 10° WSW 03:11:28 24° SSW 03:18:10 10° SSE visible
21 May 9.5 23:40:10 10° SW 23:54:00 28° SSE 00:04:05 10° ESE visible
22 May 9.1 01:55:14 10° WSW 02:07:23 28° S 02:15:35 10° SE visible
22 May 9.2 04:12:57 10° WSW 04:19:13 16° SW 04:24:03 10° S visible
22 May 9.8 22:35:09 10° SSW 22:49:04 26° SSE 22:59:55 10° ESE visible
23 May 9.3 00:48:56 10° SW 01:02:54 31° S 01:12:31 10° SE visible
23 May 9.2 03:05:40 10° WSW 03:15:34 23° SSW 03:22:30 10° SSE visible
23 May 9.5 23:43:00 10° SW 23:58:04 32° S 00:08:59 10° ESE visible
24 May 9.2 01:58:51 10° WSW 02:11:29 29° SSW 02:20:07 10° SE visible
24 May 9.8 22:37:37 10° SW 22:53:00 30° SSE 23:04:57 10° ESE visible
25 May 9.3 00:52:19 10° WSW 01:06:59 33° S 01:17:09 10° SE visible
25 May 9.3 03:09:47 10° WSW 03:19:31 21° SSW 03:26:34 10° SSE visible
25 May 10.0 21:32:59 10° SSW 21:47:47 27° SSE 22:00:18 10° ESE visible
25 May 9.5 23:46:10 10° SW 00:02:04 35° S 00:13:41 10° ESE visible
26 May 9.3 02:02:37 10° WSW 02:15:27 28° SSW 02:24:24 10° SSE visible
26 May 9.7 22:40:31 10° SW 22:56:51 34° S 23:09:42 10° ESE visible
27 May 9.4 00:55:53 10° WSW 01:10:56 33° SSW 01:21:34 10° SE visible
27 May 9.5 03:14:09 10° WSW 03:23:18 19° SW 03:30:13 10° S visible
27 May 10.0 21:35:34 10° SW 21:51:30 32° SSE 22:05:10 10° ESE visible
